Tracking 19219 objects as of 19-Jul-2018
HD Live streaming from Space Station
objects crossing your sky now

FENGYUN 1C DEB

Track FENGYUN 1C DEB now!
10-day predictions


NORAD ID: 30686
Int'l Code: 1999-025AQU
Perigee: 587.6 km
Apogee: 877.7 km
Inclination: 99.0 °
Period: 99.3 minutes
Semi major axis: 7103 km
RCS: 0.0215 m2 (small)
Launch date: May 10, 1999
Source: People's Republic of China (PRC)
Launch site: Taiyaun Space Center, China (TSC)

Note: This is SATELLITE DEBRIS
aabbcc
Your satellite tracking list
Your tracking list is empty




NASA's NSSDC Master Catalog

Two Line Element Set (TLE):
1 30686U 99025AQU 18199.78510223 +.00000420 +00000-0 +95432-4 0  9997
2 30686 098.9898 140.6888 0204176 021.2144 008.9625 14.50050556602723
Source of the keplerian elements: AFSPC